Погода в Костереве-1

Россия / Владимирская область     55°54′26″N   39°39′17″E
темп.,
°C
ветер,
м/с
пор.,
м/с
влажн.,
%
обл.,
%
осадки,
мм/ч
давл.,
гПа
погр.,
м
25 июля, вс
вс2500:00+12ссз11675 0.0 101811
03:00+9ссз22784 0.0 101917
06:00+12вюв007113 0.0 102037
09:00+16юз1256100 0.0 1020288
12:00+21зюз343799 0.0 10201880
15:00+22юз353699 0.0 10202690
18:00+21зсз354634 0.0 1020973
21:00+16зюз115990 0.0 102111
26 июля, пн
пн2600:00+15юз1164100 0.0 102215
03:00+16зюз2258100 0.0 102244
06:00+16зюз2360100 0.0 102362
09:00+19з235089 0.0 1023307
12:00+23з3438100 0.0 10231559
15:00+25зюз253555 0.0 10222334
18:00+22зюз354592 0.0 1021605
21:00+19юз2654100 0.0 1021117
27 июля, вт
вт2700:00+16зюз24665 0.0 102269
03:00+16зсз236845 0.0 102267
06:00+17зсз23724 0.0 102277
09:00+24с12475 0.0 1021602
12:00+27сз233331 0.0 10202591
15:00+26зсз234168 0.0 1019848
18:00+27зюз24391 0.0 1018765
21:00+20юз22573 0.0 101823
28 июля, ср
ср2800:00+16ю11754 0.0 101826
03:00+15зсз22813 0.0 101832
06:00+17зюз23770 0.0 1017100
09:00+24з12504 0.0 1016581
12:00+27юз3442100 0.0 10141733
15:00+26юз2548100 0.0 1012446
18:00+20в2283100 1.6 101258
21:00+17ююз1391100 3.8 101281
29 июля, чт
чт2900:00+16вюв3698100 4.4 1010214
03:00+16юв3798100 5.3 1007305
06:00+17ююв2599100 1.0 1006269
09:00+18зюз2696100 1.0 1005396
12:00+18з489595 0.8 1005620
15:00+20з498853 1.7 1005799
18:00+21зсз411845 1.1 10051016
21:00+17з23963 1.8 100652